NOAA 16 DEB, 41073

Orbit data source: Space-Track

NOAA 16 DEB, 41073 is space debris in SSO originally from a launch on Thu, 21 Sep 2000 UTC launched from the Air Force Western Test Range (AFWTR). Debris objects in space refer to the collection of defunct objects orbiting the Earth. Examples of debris include non-operational satellites, rocket bodies, and fragments generated from explosions, collisions, or faulty payload assembly.

Loading next visibility...
Identifier
41073, 2000-055AG
Orbit
SSO
Country
Flag of USUS
Related business
Manufacturer
Unknown
Mission
Spacecraft
Bus & Motor
Unknown
Mass
Unknown
Launch date (UTC)
2000-09-21 (25 years ago)
Launch vehicle
Unknown
Launch site
Air Force Western Test Range (AFWTR)
Object type
Payload
Rocket body
Debris
Shape & HBR
Unknown shape, 0.1 m
Radar Cross Section
Small (<0.1 m²)

Expand to show TLE details & history
Last TLE update: 20 hours ago

TLE from 20 hours ago
0 NOAA 16 DEB
1 41073U 00055AG  25347.87628142  .00004223  00000-0  16040-2 0  9998
2 41073  98.7809  93.8077 0017520   1.6408 358.4829 14.31476213520857
Epoch: 2025-12-13T21:01Z
TLE epoch observation values (Epoch: 2025-12-13T21:01:50.714Z)
Latitude
-0.00004°
Longitude
55.54914°
Altitude
777.177 km
Speed
7.472 km/s
True Right ascension
06h 15m 13s
True Declination
0° 00' 00"
Sunlit
Object was in full shadow at epoch
Visualization orbit readout
Latitude
Unknown
Longitude
Unknown
Altitude
Unknown
Speed
Unknown
Apparent Right ascension
Unknown
Apparent Declination
Unknown
Sunlit
N/A
Visualization observer readout
Local Sidereal Time
15:17:41
Azimuth
Unknown
Elevation
Unknown
Doppler factor
Unknown
Orbital elements
Apogee altitude
796.495 km
Perigee altitude
771.399 km
Semi-major axis
7,162.084 km
Eccentricity
0.00175
Inclination
98.7809°
RAAN
93.8077°
Arg. of periapsis
1.6408°
True anomaly
358.47757°
Mean anomaly
358.4829°
Eccentric anomaly
358.48024°
Mean motion
3.58083 °/min
Orbital period
100.54 mins
BSTAR
0.001604
Loading maneuver chart data...
Computing Atmospheric mass density...
Loading historical data...
Loading historical data...
Loading historical data...
Loading historical data...
Loading historical data...
Loading historical data...
Loading historical data...

Documentation

Showing up to 5 results
|